CW3001 Weather Reports


Display with metric or nautical units.
time (UTC)temp
F
wind
direction
speed
MPH
gust
MPH
rain 1hr
in
rain 24hr
in
rain mn
in
humidity
%
barometer
mb
20260831113945 66 278 7.0 23.0 0.00 0.16 0.15 78 1010.7
20260831113446 66 237 12.0 24.0 0.00 0.16 0.15 78 1010.7
20260831112946 65 206 6.0 24.0 0.00 0.16 0.15 79 1010.6
20260831112855 65 266 10.0 21.0 0.00 0.16 0.15 78 1010.5
20260831111944 66 213 13.0 21.0 0.00 0.16 0.15 79 1010.4
20260831111444 65 241 10.0 16.0 0.00 0.16 0.15 82 1010.3
20260831110946 64 224 4.0 11.0 0.00 0.17 0.15 85 1010.4
20260831110445 64 223 6.0 14.0 0.00 0.17 0.15 84 1010.4
20260831105944 64 238 7.0 14.0 0.00 0.17 0.15 84 1010.5
20260831105446 64 240 6.0 12.0 0.00 0.17 0.15 84 1010.4
20260831104944 64 298 6.0 16.0 0.00 0.17 0.15 84 1010.4
20260831104446 64 228 11.0 17.0 0.00 0.17 0.15 83 1010.6
20260831103945 64 259 10.0 18.0 0.01 0.17 0.15 82 1010.4
20260831103444 65 224 12.0 18.0 0.02 0.17 0.15 82 1010.3
20260831102943 65 231 8.0 13.0 0.07 0.17 0.15 84 1010.4
20260831102444 64 274 7.0 12.0 0.07 0.17 0.15 86 1010.3
20260831102331 63 255 6.0 16.0 0.07 0.17 0.15 85 1010.3
20260831101444 63 261 8.0 16.0 0.07 0.17 0.15 87 1010.4
20260831100944 63 231 7.0 14.0 0.07 0.17 0.15 88 1010.3
20260831100444 63 219 9.0 14.0 0.07 0.17 0.15 87 1010.4
20260831095943 62 217 6.0 13.0 0.07 0.09 0.15 87 1010.2
20260831095444 62 233 7.0 15.0 0.07 0.09 0.15 87 1010.2
20260831094941 62 238 8.0 15.0 0.07 0.09 0.15 86 1010.2
20260831094824 62 228 7.0 13.0 0.06 0.09 0.14 85 1010.1
20260831093944 63 281 6.0 15.0 0.06 0.09 0.13 84 1010.2
20260831093443 63 264 9.0 20.0 0.05 0.09 0.11 83 1010.2
20260831092942 64 243 13.0 21.0 0.00 0.09 0.08 80 1009.9
20260831092442 65 233 11.0 21.0 0.00 0.09 0.08 78 1009.9
20260831091940 66 243 10.0 18.0 0.00 0.09 0.08 78 1010.0
20260831091443 66 233 10.0 22.0 0.00 0.09 0.08 77 1009.9
20260831090941 66 234 13.0 27.0 0.00 0.09 0.08 76 1009.9
20260831090444 65 248 12.0 27.0 0.00 0.09 0.08 77 1009.8
20260831085941 65 257 12.0 28.0 0.00 0.09 0.08 76 1009.8
20260831085441 65 290 13.0 29.0 0.00 0.09 0.08 75 1009.6
20260831084942 66 197 17.0 29.0 0.00 0.09 0.08 74 1009.7
20260831084440 66 223 14.0 30.0 0.00 0.09 0.08 75 1009.6
20260831083940 66 234 18.0 30.0 0.00 0.09 0.08 74 1009.6
20260831083442 66 241 13.0 24.0 0.00 0.09 0.08 74 1009.5
20260831082942 66 231 15.0 24.0 0.00 0.09 0.08 75 1009.4
20260831082443 65 196 14.0 22.0 0.00 0.09 0.08 77 1009.2
20260831082321 65 221 10.0 22.0 0.00 0.09 0.08 77 1009.3
20260831081440 65 216 13.0 24.0 0.00 0.09 0.08 78 1009.3
20260831080940 64 162 13.0 29.0 0.00 0.09 0.08 78 1009.3
20260831080826 64 227 12.0 29.0 0.00 0.09 0.08 78 1009.3
20260831075939 64 241 11.0 26.0 0.00 0.09 0.08 77 1009.4
20260831075823 65 261 15.0 26.0 0.00 0.09 0.08 78 1009.3
20260831074939 65 275 9.0 21.0 0.00 0.09 0.08 78 1009.3
20260831074439 65 226 10.0 22.0 0.00 0.09 0.08 77 1009.3
20260831073939 65 221 13.0 22.0 0.00 0.09 0.08 77 1009.3
20260831073438 65 251 10.0 20.0 0.00 0.09 0.08 78 1009.3
20260831072940 65 258 12.0 20.0 0.00 0.09 0.08 78 1009.2
20260831072438 64 235 11.0 18.0 0.00 0.09 0.08 78 1009.3
20260831071940 64 190 10.0 20.0 0.00 0.09 0.08 79 1009.2
20260831071438 64 228 10.0 24.0 0.00 0.09 0.08 78 1009.2
20260831070940 64 226 15.0 24.0 0.00 0.09 0.08 78 1009.2
20260831070827 64 217 11.0 22.0 0.00 0.09 0.08 79 1009.4
20260831070326 64 240 13.0 20.0 0.00 0.09 0.08 79 1009.4
20260831065438 63 240 10.0 20.0 0.00 0.09 0.08 79 1009.2
20260831064938 63 186 12.0 20.0 0.00 0.09 0.08 79 1009.3
20260831064438 63 206 13.0 18.0 0.00 0.09 0.08 79 1009.3
20260831063938 63 226 8.0 17.0 0.00 0.09 0.08 79 1009.2
20260831063436 64 212 12.0 17.0 0.00 0.09 0.08 79 1009.3
20260831062938 64 182 7.0 20.0 0.00 0.09 0.08 78 1009.3
20260831062437 64 234 9.0 20.0 0.00 0.09 0.08 78 1009.4
20260831061938 64 216 10.0 18.0 0.00 0.09 0.08 79 1009.3
20260831061438 64 178 10.0 18.0 0.00 0.09 0.08 79 1009.3
20260831060936 64 219 9.0 21.0 0.00 0.09 0.08 80 1009.4
20260831060436 63 199 17.0 21.0 0.00 0.09 0.08 80 1009.3
20260831055936 63 199 11.0 17.0 0.00 0.09 0.08 80 1009.0
20260831055434 63 224 12.0 17.0 0.00 0.09 0.08 81 1009.2
20260831055324 62 230 11.0 18.0 0.00 0.09 0.08 81 1009.0
20260831054435 62 226 11.0 18.0 0.00 0.09 0.08 82 1009.0
20260831053936 62 213 11.0 16.0 0.00 0.09 0.08 81 1009.2
20260831053435 62 199 10.0 16.0 0.00 0.09 0.08 82 1009.2
20260831052935 62 234 9.0 17.0 0.00 0.09 0.08 82 1009.1
20260831052434 62 202 9.0 17.0 0.00 0.09 0.08 83 1009.1
20260831051934 62 182 11.0 15.0 0.00 0.09 0.08 83 1009.1
20260831051433 62 204 8.0 15.0 0.00 0.09 0.08 83 1009.0
20260831050933 62 209 6.0 19.0 0.00 0.09 0.08 83 1009.1
20260831050437 62 182 12.0 21.0 0.00 0.09 0.08 83 1009.1
20260831045937 62 214 10.0 21.0 0.00 0.09 0.08 84 1009.2
20260831045438 62 223 9.0 14.0 0.00 0.09 0.08 84 1009.2
20260831045313 61 207 7.0 14.0 0.00 0.09 0.08 84 1009.0
20260831044811 62 219 6.0 15.0 0.00 0.09 0.08 84 1009.1
20260831043938 61 196 9.0 15.0 0.00 0.09 0.08 84 1009.0
20260831043435 61 190 6.0 13.0 0.00 0.09 0.08 84 1009.1
20260831042933 61 219 6.0 11.0 0.00 0.09 0.08 85 1009.1
20260831042436 61 224 6.0 10.0 0.00 0.09 0.08 85 1009.0
20260831041934 61 217 6.0 11.0 0.00 0.09 0.08 85 1009.1
20260831041805 61 210 6.0 11.0 0.00 0.09 0.08 85 1009.0
20260831040936 61 233 6.0 12.0 0.00 0.09 0.08 85 1009.0
20260831040804 61 216 5.0 13.0 0.00 0.09 0.08 85 1009.2
20260831035933 61 192 8.0 13.0 0.00 0.09 0.08 85 1009.2
20260831035433 61 200 8.0 13.0 0.00 0.09 0.08 85 1009.2
20260831034934 61 210 5.0 16.0 0.00 0.09 0.08 85 1009.3
20260831034433 61 210 7.0 16.0 0.00 0.09 0.08 85 1009.3
20260831033931 62 210 8.0 13.0 0.00 0.09 0.08 85 1009.3
20260831033432 62 190 9.0 13.0 0.00 0.09 0.08 85 1009.4
20260831032933 62 228 9.0 13.0 0.00 0.09 0.08 85 1009.5
20260831032707 62 230 5.0 12.0 0.00 0.09 0.08 86 1009.4
20260831032558 62 183 7.0 13.0 0.00 0.09 0.08 86 1009.3
20260831031432 61 254 7.0 13.0 0.00 0.09 0.08 86 1009.4
20260831030944 61 241 5.0 15.0 0.01 0.09 0.08 86 1009.3
20260831030433 61 213 7.0 15.0 0.01 0.09 0.08 86 1009.3
20260831025932 61 221 8.0 15.0 0.01 0.09 0.08 86 1009.4
20260831025432 61 223 8.0 13.0 0.01 0.09 0.08 87 1009.4
20260831025309 61 231 6.0 11.0 0.01 0.09 0.08 87 1009.4
20260831024434 61 213 5.0 11.0 0.01 0.09 0.08 87 1009.4
20260831023933 61 274 6.0 11.0 0.01 0.09 0.08 87 1009.4
20260831023432 61 219 5.0 10.0 0.01 0.09 0.08 87 1009.4
20260831022931 61 206 5.0 10.0 0.01 0.09 0.08 88 1009.3
20260831022431 61 240 5.0 12.0 0.01 0.09 0.08 88 1009.2
20260831021931 61 212 7.0 12.0 0.01 0.09 0.08 88 1009.2
20260831021431 61 199 5.0 12.0 0.01 0.09 0.08 88 1009.2
20260831021307 61 206 6.0 10.0 0.00 0.09 0.07 88 1009.3
20260831020431 61 234 6.0 9.0 0.00 0.09 0.07 88 1009.2
20260831015932 61 221 4.0 9.0 0.00 0.09 0.07 88 1009.2
20260831015431 61 259 5.0 9.0 0.00 0.09 0.07 88 1009.3
20260831014934 61 216 4.0 7.0 0.00 0.09 0.07 88 1009.1
20260831014430 61 226 4.0 7.0 0.00 0.09 0.07 88 1009.1
20260831013930 61 238 5.0 9.0 0.00 0.09 0.07 88 1009.2
20260831013430 61 192 5.0 9.0 0.07 0.09 0.07 88 1009.2
20260831012932 62 216 5.0 7.0 0.07 0.09 0.07 88 1009.3
20260831012430 62 223 4.0 10.0 0.07 0.09 0.07 88 1009.4
20260831011930 62 203 5.0 10.0 0.07 0.09 0.07 88 1009.4
20260831011431 62 238 5.0 10.0 0.07 0.09 0.07 88 1009.4
20260831011313 62 258 5.0 13.0 0.07 0.09 0.07 88 1009.5
20260831010430 62 240 7.0 13.0 0.07 0.09 0.07 87 1009.5
20260831005929 62 206 6.0 12.0 0.07 0.02 0.07 87 1009.5
20260831005431 62 220 6.0 13.0 0.07 0.02 0.07 87 1009.5
20260831004930 63 190 7.0 13.0 0.07 0.02 0.07 88 1009.6
20260831004428 63 210 8.0 14.0 0.07 0.02 0.07 88 1009.6
20260831003928 63 220 8.0 14.0 0.07 0.02 0.07 87 1009.7
20260831003430 63 230 6.0 11.0 0.00 0.02 0.00 87 1009.7
20260831002929 62 235 6.0 11.0 0.00 0.02 0.00 87 1009.6
20260831002429 62 240 4.0 6.0 0.00 0.02 0.00 87 1009.4
20260831001927 62 210 3.0 6.0 0.00 0.02 0.00 87 1009.6
20260831001427 62 216 4.0 6.0 0.00 0.02 0.00 87 1009.7
20260831000930 62 195 3.0 4.0 0.00 0.02 0.00 86 1009.5
20260831000427 62 202 3.0 4.0 0.00 0.02 0.00 86 1009.6
20260830235928 62 200 2.0 3.0 0.00 0.02 0.00 86 1009.6
20260830235441 62 200 2.0 3.0 0.00 0.02 0.00 86 1009.6
20260830234927 62 200 1.0 3.0 0.00 0.02 0.00 86 1009.7
20260830234428 0 200 2.0 4.0 0.00 0.02 0.00 1009.8
20260830233926 62 197 3.0 4.0 0.00 0.02 0.00 85 1009.9
20260830233426 62 196 2.0 5.0 0.00 0.02 0.00 85 1009.8
20260830232926 63 195 2.0 5.0 0.00 0.02 0.00 85 1009.8
20260830232426 63 159 1.0 5.0 0.00 0.02 0.00 85 1009.6
20260830231928 63 176 3.0 4.0 0.00 0.02 0.00 85 1009.5
20260830231918 63 178 3.0 5.0 0.00 0.02 0.00 85 1009.8
20260830231538 63 169 3.0 6.0 0.00 0.02 0.00 85 1009.8
20260830231500 63 180 3.0 6.0 0.00 0.02 0.00 85 1009.7
20260830225926 63 175 3.0 5.0 0.00 0.02 0.00 85 1009.7
20260830225815 63 180 2.0 5.0 0.00 0.02 0.00 85 1009.8
20260830224927 0 185 3.0 5.0 0.00 0.02 0.00 1009.9
20260830224807 63 202 2.0 5.0 0.00 0.02 0.00 85 1009.9
20260830223928 63 196 3.0 5.0 0.00 0.02 0.00 85 1009.9
20260830223809 63 209 3.0 5.0 0.00 0.02 0.00 85 1009.9
20260830222926 63 180 3.0 5.0 0.00 0.02 0.00 85 1009.8
20260830222425 63 180 2.0 5.0 0.00 0.02 0.00 85 1009.9
20260830221925 63 190 3.0 4.0 0.00 0.02 0.00 85 1010.0
20260830221426 63 197 2.0 5.0 0.00 0.02 0.00 85 1009.9
20260830220925 63 182 3.0 6.0 0.00 0.02 0.00 85 1010.0
20260830220424 63 190 3.0 6.0 0.00 0.02 0.00 85 1010.0
20260830215924 63 185 3.0 5.0 0.00 0.02 0.02 85 1009.9
20260830215427 63 188 2.0 5.0 0.00 0.02 0.02 84 1010.0
20260830214925 0 161 3.0 5.0 0.00 0.02 0.02 1010.0
20260830214801 63 173 3.0 5.0 0.00 0.02 0.02 84 1010.2
20260830213925 63 173 3.0 5.0 0.00 0.02 0.02 84 1010.2
20260830213811 63 178 2.0 4.0 0.00 0.02 0.02 84 1010.3
20260830212925 63 173 2.0 4.0 0.00 0.02 0.02 84 1010.4
20260830212425 64 169 0.0 5.0 0.00 0.02 0.02 84 1010.4
20260830212050 64 203 0.0 0.0 0.00 0.02 0.02 83 1010.4
20260830212041 64 202 0.0 0.0 0.00 0.02 0.02 83 1010.4
20260830212003 64 171 3.0 5.0 0.00 0.02 0.02 83 1010.4
20260830210423 64 203 0.0 0.0 0.00 0.02 0.02 82 1010.3
20260830205922 64 207 0.0 4.0 0.00 0.02 0.02 82 1010.4
20260830205805 64 212 1.0 5.0 0.00 0.02 0.02 82 1010.4
20260830204922 64 217 3.0 5.0 0.00 0.02 0.02 82 1010.4
20260830204424 64 178 2.0 6.0 0.00 0.02 0.02 82 1010.5
20260830203923 64 178 3.0 6.0 0.00 0.02 0.02 82 1010.4
20260830203422 64 193 3.0 5.0 0.00 0.13 0.02 82 1010.4
20260830203314 64 189 3.0 5.0 0.00 0.24 0.02 81 1010.6
20260830202424 65 183 3.0 5.0 0.00 0.24 0.02 81 1010.6
20260830201923 65 193 3.0 7.0 0.00 0.24 0.02 81 1010.7
20260830201424 65 209 4.0 7.0 0.00 0.24 0.02 81 1010.7
20260830200923 65 180 3.0 7.0 0.00 0.24 0.02 81 1010.6
20260830200424 65 195 3.0 7.0 0.00 0.24 0.02 80 1010.7
20260830200257 65 197 4.0 6.0 0.00 0.24 0.02 80 1010.6
20260830195422 65 158 3.0 6.0 0.00 0.24 0.02 80 1010.6
20260830194921 65 176 4.0 7.0 0.00 0.24 0.02 80 1010.7
20260830194423 65 164 4.0 9.0 0.01 0.24 0.02 80 1010.8
20260830194308 65 166 4.0 9.0 0.01 0.24 0.02 80 1010.9
20260830193421 65 199 5.0 9.0 0.01 0.25 0.02 80 1010.8
20260830192922 66 164 3.0 7.0 0.01 0.25 0.02 79 1010.7
20260830192421 66 154 4.0 9.0 0.01 0.25 0.02 79 1010.8
20260830192308 66 164 5.0 9.0 0.01 0.25 0.02 78 1010.7
20260830191808 67 165 5.0 9.0 0.01 0.25 0.02 78 1010.8
20260830190920 67 159 6.0 10.0 0.01 0.25 0.02 77 1010.9
20260830190420 67 165 6.0 11.0 0.01 0.25 0.02 77 1010.8
20260830185921 67 180 6.0 15.0 0.01 0.24 0.02 76 1010.8
20260830185419 67 178 5.0 15.0 0.01 0.24 0.02 75 1010.9
20260830184920 68 169 9.0 18.0 0.01 0.24 0.02 74 1011.0
20260830184421 68 202 9.0 18.0 0.00 0.24 0.01 72 1010.9
20260830183920 68 171 3.0 5.0 0.00 0.24 0.01 71 1010.8
20260830183548 68 192 2.0 4.0 0.00 0.24 0.01 71 1010.8
20260830183541 68 189 2.0 3.0 0.00 0.24 0.01 72 1010.9
20260830183500 68 183 3.0 4.0 0.00 0.24 0.01 71 1010.8
20260830181920 68 195 2.0 4.0 0.00 0.24 0.01 71 1010.9
20260830181419 69 197 2.0 3.0 0.00 0.24 0.01 70 1010.9
20260830180920 69 200 2.0 3.0 0.00 0.24 0.01 70 1010.9
20260830180418 69 202 0.0 0.0 0.00 0.24 0.01 69 1011.0
20260830175919 69 202 0.0 0.0 0.00 0.24 0.01 69 1011.0
20260830175418 69 202 0.0 3.0 0.00 0.24 0.01 69 1011.0
20260830175309 69 202 0.0 3.0 0.00 0.24 0.01 68 1011.1
20260830174704 70 202 2.0 5.0 0.00 0.24 0.01 67 1011.2
20260830174548 70 202 2.0 4.0 0.00 0.24 0.01 67 1011.1
20260830173808 70 202 2.0 5.0 0.00 0.24 0.01 66 1011.1
20260830172918 70 209 4.0 7.0 0.00 0.24 0.01 66 1011.2
20260830172418 70 200 4.0 9.0 0.00 0.24 0.01 65 1011.2
20260830171918 71 214 5.0 10.0 0.00 0.24 0.01 65 1011.2
20260830171416 71 213 6.0 10.0 0.00 0.24 0.01 64 1011.4
20260830170920 71 209 5.0 12.0 0.00 0.24 0.01 65 1011.3
20260830170505 72 213 6.0 11.0 0.00 0.24 0.01 62 1011.4
20260830170452 71 226 7.0 12.0 0.00 0.24 0.01 63 1011.4
20260830170445 71 204 7.0 11.0 0.00 0.24 0.01 63 1011.3
20260830170426 71 226 5.0 12.0 0.00 0.24 0.01 64 1011.3
20260830164416 72 213 6.0 12.0 0.00 0.24 0.01 62 1011.4
20260830164310 72 209 8.0 12.0 0.00 0.25 0.01 61 1011.4
20260830163416 72 212 7.0 11.0 0.00 0.25 0.01 60 1011.4
20260830162916 72 224 6.0 12.0 0.00 0.25 0.01 61 1011.3
20260830162803 72 206 7.0 17.0 0.00 0.28 0.01 59 1011.4
20260830162204 73 223 9.0 13.0 0.00 0.28 0.01 60 1011.5
20260830162045 72 196 6.0 17.0 0.00 0.28 0.01 58 1011.4
20260830160916 73 202 9.0 16.0 0.00 0.31 0.01 60 1011.5
20260830160416 73 231 9.0 16.0 0.00 0.34 0.01 60 1011.5
20260830155916 74 245 9.0 14.0 0.00 0.35 0.01 59 1011.5
20260830155416 74 219 8.0 14.0 0.00 0.36 0.01 59 1011.5
20260830154915 73 213 9.0 14.0 0.00 0.37 0.01 59 1011.6
20260830154758 73 199 8.0 13.0 0.00 0.37 0.01 61 1011.5
20260830153928 73 216 7.0 13.0 0.00 0.37 0.01 60 1011.6
20260830153414 73 231 4.0 15.0 0.00 0.37 0.01 61 1011.6
20260830152915 73 224 5.0 15.0 0.00 0.38 0.01 61 1011.7
20260830152414 74 231 8.0 15.0 0.00 0.38 0.01 62 1011.7
20260830151913 74 252 8.0 13.0 0.00 0.38 0.01 62 1011.6
20260830151413 73 230 8.0 13.0 0.00 0.38 0.01 63 1011.7
20260830150914 73 258 5.0 14.0 0.00 0.38 0.01 62 1011.7
20260830150412 73 199 8.0 14.0 0.00 0.38 0.01 61 1011.8
20260830145914 73 245 9.0 15.0 0.00 0.38 0.01 61 1011.7
20260830145414 73 243 7.0 15.0 0.00 0.38 0.01 63 1011.8
20260830145306 73 207 8.0 13.0 0.00 0.39 0.01 66 1011.8
20260830144415 72 243 4.0 7.0 0.00 0.39 0.01 67 1011.8
20260830144305 72 286 3.0 7.0 0.00 0.39 0.01 69 1011.9
20260830143802 71 281 4.0 10.0 0.00 0.39 0.01 70 1011.9
20260830142913 71 245 4.0 10.0 0.00 0.39 0.01 69 1012.0
20260830142413 71 288 5.0 10.0 0.00 0.39 0.01 70 1011.9
20260830141913 71 271 5.0 10.0 0.00 0.39 0.01 68 1012.0
20260830141412 71 238 5.0 7.0 0.00 0.39 0.01 67 1012.0
20260830140912 71 250 4.0 10.0 0.00 0.39 0.01 69 1012.0
20260830140411 71 210 5.0 13.0 0.00 0.39 0.01 68 1012.0
20260830135912 71 254 7.0 13.0 0.00 0.39 0.01 68 1012.2
20260830135412 71 258 4.0 7.0 0.00 0.39 0.01 71 1012.1
20260830134911 71 266 4.0 7.0 0.00 0.39 0.01 71 1012.3
20260830134804 71 241 5.0 7.0 0.00 0.39 0.01 69 1012.2
20260830133912 71 244 3.0 9.0 0.00 0.39 0.01 69 1012.2
20260830133412 71 272 6.0 11.0 0.00 0.39 0.01 68 1012.2
20260830132911 72 248 6.0 12.0 0.00 0.39 0.01 67 1012.4
20260830132412 72 259 9.0 15.0 0.00 0.39 0.01 67 1012.2
20260830131911 72 233 8.0 17.0 0.00 0.39 0.01 69 1012.3
20260830131411 73 217 9.0 17.0 0.00 0.39 0.01 66 1012.2
20260830130912 73 237 6.0 14.0 0.00 0.39 0.01 67 1012.3
20260830130411 73 219 7.0 12.0 0.00 0.39 0.01 66 1012.2
20260830125913 73 281 5.0 11.0 0.00 0.39 0.01 68 1012.3
20260830125411 71 210 7.0 11.0 0.00 0.39 0.01 70 1012.1
20260830124914 71 282 6.0 12.0 0.00 0.39 0.01 72 1012.3
20260830124413 70 235 5.0 18.0 0.00 0.39 0.01 72 1012.3
20260830123912 70 275 7.0 18.0 0.00 0.39 0.01 71 1012.4
20260830123412 70 254 11.0 16.0 0.00 0.39 0.01 71 1012.4
20260830122911 70 261 4.0 13.0 0.00 0.39 0.01 70 1012.3
20260830122410 70 250 7.0 12.0 0.00 0.39 0.01 70 1012.3
20260830121912 70 255 5.0 15.0 0.00 0.39 0.01 71 1012.2
20260830121410 70 243 9.0 15.0 0.00 0.39 0.01 70 1012.2
20260830120910 70 268 6.0 19.0 0.01 0.39 0.01 70 1012.2
20260830120410 71 257 7.0 19.0 0.01 0.39 0.01 70 1012.2
20260830120253 71 251 10.0 18.0 0.01 0.39 0.01 69 1012.0
20260830115409 71 262 8.0 16.0 0.01 0.39 0.01 71 1012.0
20260830114910 70 278 7.0 16.0 0.01 0.39 0.01 70 1012.1